NIMIQ 2

Last updated on Tue Oct 28 2025 00:02:46 GMT+0000 (Coordinated Universal Time)

1 27632U 02062A 25300.45219851 -.00000056 00000+0 00000+0 0 9995 2 27632 8.9045 59.2933 0005876 158.5027 231.9130 1.00272413 41850
UTC large
Height (km)
Speed (km/s)
/
Latitude / Longitude
Inclination (degrees)
Orbital Period (minutes)
Azimuth
Elevation
Range (km)
Doppler Factor

Next 0 passes for location: London (51.5072 / 0.1276)

Sorry there are no passes over London.